FW2520 Weather Reports


Display with metric or nautical units.
time (UTC)temp
F
wind
direction
speed
MPH
gust
MPH
rain 1hr
in
rain 24hr
in
rain mn
in
humidity
%
barometer
mb
20260505034515 65 146 1.0 8.0 0.00 0.00 0.00 34 1016.7
20260505033019 66 263 2.0 6.0 0.00 0.00 0.00 33 1016.7
20260505031515 65 179 1.0 5.0 0.00 0.00 0.00 33 1016.6
20260505030022 64 157 1.0 6.0 0.00 0.00 0.00 35 1016.7
20260505024514 64 159 1.0 4.0 0.00 0.00 0.00 35 1016.6
20260505023015 65 159 0.0 1.0 0.00 0.00 0.00 34 1016.5
20260505021514 66 159 0.0 1.0 0.00 0.00 0.00 32 1016.4
20260505020014 67 159 0.0 3.0 0.00 0.00 0.00 32 1016.4
20260505014516 68 159 1.0 3.0 0.00 0.00 0.00 29 1016.2
20260505013014 69 159 1.0 5.0 0.00 0.00 0.00 28 1016.1
20260505011518 70 171 0.0 3.0 0.00 0.00 0.00 26 1015.8
20260505010012 71 209 1.0 4.0 0.00 0.00 0.00 25 1015.8
20260505004523 71 207 1.0 3.0 0.00 0.00 0.00 24 1015.6
20260505003011 72 205 0.0 2.0 0.00 0.00 0.00 23 1015.4
20260505001511 73 199 0.0 4.0 0.00 0.00 0.00 21 1015.3
20260505000017 73 213 1.0 6.0 0.00 0.00 0.00 21 1015.3
20260504234522 74 227 0.0 6.0 0.00 0.00 0.00 20 1015.1
20260504233010 75 239 1.0 5.0 0.00 0.00 0.00 20 1014.9
20260504231530 75 148 2.0 9.0 0.00 0.00 0.00 18 1014.8
20260504230011 76 149 2.0 9.0 0.00 0.00 0.00 18 1014.9
20260504224509 76 150 3.0 9.0 0.00 0.00 0.00 16 1014.9
20260504223009 77 212 2.0 9.0 0.00 0.00 0.00 14 1014.9
20260504221508 77 217 1.0 7.0 0.00 0.00 0.00 15 1014.9
20260504220008 77 219 4.0 14.0 0.00 0.00 0.00 15 1014.9
20260504214512 78 139 3.0 10.0 0.00 0.00 0.00 15 1015.0
20260504213007 78 247 4.0 10.0 0.00 0.00 0.00 15 1014.9
20260504211506 77 119 1.0 10.0 0.00 0.00 0.00 15 1015.0
20260504210007 78 134 3.0 10.0 0.00 0.00 0.00 16 1015.0
20260504204502 78 242 2.0 11.0 0.00 0.00 0.00 17 1015.1
20260504203100 79 207 3.0 13.0 0.00 0.00 0.00 14 1015.3
20260504201559 77 219 1.0 12.0 0.00 0.00 0.00 19 1015.5
20260504200057 77 225 1.0 8.0 0.00 0.00 0.00 18 1015.7
20260504194556 77 236 3.0 9.0 0.00 0.00 0.00 19 1016.0
20260504193051 77 121 1.0 9.0 0.00 0.00 0.00 18 1016.3
20260504191548 76 147 4.0 9.0 0.00 0.00 0.00 19 1016.4
20260504190056 76 246 3.0 11.0 0.00 0.00 0.00 18 1016.5
20260504184559 75 132 2.0 10.0 0.00 0.00 0.00 19 1016.6
20260504183050 75 116 4.0 14.0 0.00 0.00 0.00 21 1016.9
20260504181541 74 146 1.0 7.0 0.00 0.00 0.00 22 1017.0
20260504180040 73 238 5.0 11.0 0.00 0.00 0.00 20 1017.2
20260504174536 73 112 3.0 8.0 0.00 0.00 0.00 17 1017.3
20260504173033 73 90 3.0 9.0 0.00 0.00 0.00 17 1017.5
20260504171540 72 118 3.0 11.0 0.00 0.00 0.00 19 1017.7
20260504081530 49 195 0.0 1.0 0.00 0.00 0.00 56 1018.3
20260504050024 55 148 0.0 5.0 0.00 0.00 0.00 47 1018.3
20260504044526 55 155 1.0 3.0 0.00 0.00 0.00 47 1018.2
20260504043023 55 150 1.0 5.0 0.00 0.00 0.00 47 1018.3
20260504041522 56 149 0.0 5.0 0.00 0.00 0.00 46 1018.4
20260504040024 56 155 2.0 5.0 0.00 0.00 0.00 45 1018.6